Location: Unspecified
(49.9820°N, 20.4363°E)
Time: 22:14:31
(UTC+02:00)

ISS - Pass Details

Date: 21 July 2018
Orbit: 402 x 408 km, 51.6° (Epoch: 20 July)

Event Time Altitude Azimuth Distance (km) Brightness Sun altitude
Rises 21:18:25 0° 214° (SW) 2,310 -0.1 -6.2°
Reaches altitude 10° 21:20:43 10° 200° (SSW) 1,455 -1.2 -6.5°
Maximum altitude 21:23:25 24° 144° (SE) 882 -2.7 -6.8°
Drops below altitude 10° 21:26:09 10° 88° (E) 1,465 -1.4 -7.1°
Sets 21:28:28 0° 74° (ENE) 2,330 -0.3 -7.4°
